Date,TemperatureHighF,TemperatureAvgF,TemperatureLowF,DewpointHighF,DewpointAvgF,DewpointLowF,HumidityHigh,HumidityAvg,HumidityLow,PressureMaxIn,PressureMinIn,WindSpeedMaxMPH,WindSpeedAvgMPH,GustSpeedMaxMPH,PrecipitationSumIn
2013-11-1,75,57,44,52,46,41,93,71,42,30.20,30.05,7,0,0,0.00
2013-11-2,70,55,44,57,48,41,93,79,62,30.07,29.93,12,0,12,0.00
2013-11-3,66,54,42,45,39,34,78,59,33,30.11,29.97,10,0,0,0.00
2013-11-4,73,56,41,41,37,34,80,52,26,30.12,29.97,11,0,0,0.00
2013-11-5,74,56,45,44,39,37,74,56,28,30.27,30.12,4,0,0,0.00
2013-11-6,46,46,45,41,40,37,82,79,74,30.27,30.25,0,0,0,0.00
2013-11-7,72,62,50,51,47,40,91,62,37,30.22,30.12,7,0,0,0.00
2013-11-8,73,54,43,56,48,40,96,81,45,30.14,29.99,9,0,0,0.00
2013-11-9,75,54,42,53,46,40,96,79,44,30.09,30.01,5,0,0,0.00
2013-11-10,64,52,43,54,47,42,96,86,66,30.17,30.08,6,0,0,0.00
2013-11-11,66,54,43,55,49,41,96,86,57,30.22,30.13,3,0,0,0.00
2013-11-12,73,58,49,54,50,46,91,77,50,30.32,30.20,6,0,0,0.00
2013-11-13,70,54,45,57,50,44,98,87,63,30.30,30.14,6,0,0,0.00
2013-11-14,60,54,47,55,50,42,96,86,56,30.16,29.91,17,1,17,0.00
2013-11-15,68,53,41,50,43,39,93,73,47,29.92,29.77,15,0,15,0.00
2013-11-16,64,51,40,52,46,38,94,83,61,29.97,29.81,12,1,12,0.00
2013-11-17,62,50,43,53,46,41,96,87,66,30.14,29.97,5,0,0,0.00
2013-11-18,59,50,40,53,46,39,96,88,69,30.20,30.13,8,0,0,0.00
2013-11-19,58,55,53,57,53,50,97,94,87,30.15,29.98,7,0,0,1.07
2013-11-20,61,56,49,60,55,48,97,95,90,29.99,29.89,9,0,0,0.49
2013-11-21,64,56,50,50,42,27,96,64,32,30.05,29.94,12,1,12,0.01
2013-11-22,71,60,49,39,31,20,58,33,23,30.07,29.94,10,1,0,0.00
2013-11-23,67,52,41,40,37,32,90,59,31,30.15,30.02,9,0,0,0.00
2013-11-24,65,48,37,49,41,35,93,79,47,30.31,30.15,7,0,0,0.00
2013-11-25,64,49,39,50,44,37,96,83,60,30.39,30.30,6,0,0,0.00
2013-11-26,63,52,44,47,44,41,92,76,53,30.32,30.09,5,0,0,0.00
2013-11-27,64,53,46,50,46,42,86,76,60,30.09,29.90,6,0,0,0.00
2013-11-28,72,54,44,49,44,41,89,72,38,30.12,29.92,3,0,0,0.00
2013-11-29,70,52,41,49,44,39,95,78,45,30.26,30.12,5,0,0,0.00
2013-11-30,69,51,42,53,45,40,96,82,45,30.33,30.24,3,0,0,0.00